Weather History for KDNK - January, 2013

Change the Weather History Date:

Tuesday, January 29, 2013

  Actual Average (KPOE) Record (KPOE)
Temperature  
Mean Temperature 70 °F -  
Max Temperature 73 °F 58 °F - (-1)
Min Temperature 60 °F 40 °F - (-1)
Cooling Degree Days 4    
Growing Degree Days 20 (Base 50)    
Moisture  
Dew Point 65 °F    
Average Humidity 84    
Maximum Humidity 91    
Minimum Humidity 73    
Precipitation  
Precipitation 0.19 in - - ()
Sea Level Pressure  
Sea Level Pressure 29.80 in    
Wind  
Wind Speed 13 mph (South)    
Max Wind Speed 21 mph    
Max Gust Speed 37 mph    
Visibility 10 miles    
Events Rain , Thunderstorm    
Averages and records for this station are not official NWS values.
T = Trace of Precipitation, MM = Missing Value Source: NWS Daily Summary

Daily Weather History Graph

Daily Weather History Graph

Search for Another Location

Airport or City:

Trip Planner

Search our weather history database for the weather conditions in past years. The results will help you decide how hot, cold, wet, or windy it might be!

Date:

Astronomy

Jan. 29, 2013 Rise Set
Actual Time 7:06 AM CST 5:45 PM CST
Civil Twilight 6:40 AM CST 6:11 PM CST
Nautical Twilight 6:11 AM CST 6:40 PM CST
Astronomical Twilight 5:43 AM CST 7:08 PM CST
Moon 8:26 PM CST (1/29) 8:17 AM CST (1/29)
Length of Visible Light 11h 30m
Length of Day
10h 39m
Waning Gibbous, 93% of the Moon is Illuminated
Jan 29
Waning Gibbous
Feb 3
Last Quarter
Feb 10
New
Feb 17
First Quarter
Feb 25
Full

Hourly Weather History & Observations

Time (CST) Temp. Dew Point Humidity Pressure Visibility Wind Dir Wind Speed Gust Speed Precip Events Conditions
12:53 AM 66.9 °F 63.0 °F 87% 30.01 in 10.0 mi South 9.2 mph 19.6 mph N/A   Mostly Cloudy
1:53 AM 66.9 °F 63.0 °F 87% 30.00 in 10.0 mi South 15.0 mph 24.2 mph N/A   Overcast
2:53 AM 68.0 °F 63.0 °F 84% 29.98 in 10.0 mi South 9.2 mph 21.9 mph N/A   Overcast
3:53 AM 68.0 °F 63.0 °F 84% 29.95 in 10.0 mi South 13.8 mph 20.7 mph N/A   Overcast
4:53 AM 68.0 °F 64.0 °F 87% 29.94 in 10.0 mi SSE 15.0 mph 21.9 mph N/A   Overcast
5:53 AM 68.0 °F 64.0 °F 87% 29.93 in 10.0 mi SSE 11.5 mph 18.4 mph N/A   Overcast
6:53 AM 68.0 °F 64.0 °F 87% 29.93 in 10.0 mi SSE 11.5 mph - N/A   Overcast
7:53 AM 68.0 °F 64.0 °F 87% 29.95 in 10.0 mi South 8.1 mph - N/A   Overcast
8:53 AM 69.1 °F 64.0 °F 84% 29.95 in 10.0 mi South 10.4 mph - N/A   Overcast
9:04 AM 69.8 °F 64.4 °F 83% 29.94 in 10.0 mi South 10.4 mph - N/A   Overcast
9:25 AM 69.8 °F 64.4 °F 83% 29.93 in 10.0 mi SSE 12.7 mph 18.4 mph N/A   Overcast
9:32 AM 69.8 °F 64.4 °F 83% 29.93 in 10.0 mi SSE 13.8 mph 19.6 mph 0.00 in Rain Light Rain
9:53 AM 70.0 °F 64.9 °F 84% 29.91 in 10.0 mi SSE 12.7 mph 24.2 mph 0.00 in   Overcast
10:17 AM 71.6 °F 64.4 °F 78% 29.91 in 10.0 mi SSE 11.5 mph 21.9 mph N/A   Overcast
10:41 AM 71.6 °F 64.4 °F 78% 29.90 in 10.0 mi SSE 15.0 mph 24.2 mph N/A   Overcast
10:53 AM 72.0 °F 64.9 °F 78% 29.88 in 10.0 mi South 17.3 mph 24.2 mph N/A   Overcast
11:53 AM 73.0 °F 64.9 °F 76% 29.83 in 10.0 mi South 19.6 mph 29.9 mph N/A   Overcast
12:53 PM 73.9 °F 64.9 °F 73% 29.80 in 10.0 mi South 12.7 mph 24.2 mph N/A   Overcast
1:53 PM 73.0 °F 66.0 °F 79% 29.76 in 10.0 mi South 12.7 mph 21.9 mph 0.00 in   Overcast
2:53 PM 72.0 °F 66.9 °F 84% 29.73 in 10.0 mi South 11.5 mph 20.7 mph 0.00 in Rain Light Rain
3:53 PM 72.0 °F 68.0 °F 87% 29.70 in 9.0 mi SSE 11.5 mph 18.4 mph 0.01 in Rain Light Rain
4:53 PM 72.0 °F 68.0 °F 87% 29.69 in 10.0 mi South 11.5 mph - 0.00 in   Overcast
5:53 PM 72.0 °F 68.0 °F 87% 29.67 in 9.0 mi South 15.0 mph 23.0 mph 0.03 in Rain Light Rain
6:53 PM 72.0 °F 68.0 °F 87% 29.66 in 10.0 mi South 15.0 mph 28.8 mph 0.01 in Rain Light Rain
7:37 PM 71.6 °F 68.0 °F 88% 29.66 in 9.0 mi South 15.0 mph 26.5 mph 0.05 in Rain , Thunderstorm Light Thunderstorms and Rain
7:53 PM 72.0 °F 69.1 °F 91% 29.66 in 9.0 mi South 17.3 mph 28.8 mph 0.06 in Rain Light Rain
8:25 PM 71.6 °F 68.0 °F 88% 29.65 in 10.0 mi SSW 18.4 mph 36.8 mph 0.00 in Thunderstorm Thunderstorm
8:44 PM 71.6 °F 68.0 °F 88% 29.66 in 10.0 mi SSW 16.1 mph 35.7 mph 0.00 in   Overcast
8:53 PM 72.0 °F 68.0 °F 87% 29.66 in 10.0 mi South 18.4 mph 35.7 mph 0.00 in   Overcast
9:35 PM 71.6 °F 66.2 °F 83% 29.66 in 10.0 mi South 18.4 mph 31.1 mph 0.01 in Rain , Thunderstorm Light Thunderstorms and Rain
9:48 PM 71.6 °F 66.2 °F 83% 29.67 in 10.0 mi SSW 19.6 mph 29.9 mph 0.01 in Rain , Thunderstorm Light Thunderstorms and Rain
9:53 PM 71.1 °F 66.9 °F 87% 29.66 in 9.0 mi South 18.4 mph 32.2 mph 0.02 in Rain , Thunderstorm Light Thunderstorms and Rain
10:11 PM 71.6 °F 66.2 °F 83% 29.67 in 10.0 mi South 15.0 mph 29.9 mph 0.00 in Rain Light Rain
10:53 PM 71.1 °F 66.9 °F 87% 29.66 in 10.0 mi South 17.3 mph 25.3 mph 0.00 in Rain Light Rain
11:17 PM 71.6 °F 66.2 °F 83% 29.67 in 10.0 mi SSW 15.0 mph 23.0 mph 0.00 in Rain Light Rain
11:33 PM 71.6 °F 66.2 °F 83% 29.66 in 8.0 mi SSW 11.5 mph 19.6 mph 0.01 in Rain Light Rain
11:53 PM 60.1 °F 55.9 °F 86% 29.70 in 7.0 mi WNW 20.7 mph 35.7 mph 0.06 in Rain Heavy Rain